Location: Martinez
(33.5170°N, 82.0760°W)
Time: 02:34:51
(UTC-04:00)

Hubble Space Telescope - Visible Passes

Search period start: 21 April 2015 00:00
Search period end: 01 May 2015 00:00
Orbit: 543 x 546 km, 28.5° (Epoch: 20 April)

Date Brightness Start Highest point End Pass type
(mag) Time Alt. Az. Time Alt. Az. Time Alt. Az.
21 Apr 2.0 04:50:55 32° SE 04:50:55 32° SE 04:53:39 10° ESE visible
21 Apr 1.9 06:27:04 10° WSW 06:30:43 29° SSW 06:34:20 10° SE visible
22 Apr 2.4 04:42:57 26° SE 04:42:57 26° SE 04:45:05 10° ESE visible
22 Apr 2.1 06:18:41 10° WSW 06:22:08 25° SSW 06:25:35 10° SE visible
23 Apr 2.8 04:35:04 19° SE 04:35:04 19° SE 04:36:30 10° ESE visible
23 Apr 2.3 06:10:32 11° WSW 06:13:33 21° SSW 06:16:43 10° SSE visible
24 Apr 3.3 04:27:17 13° SE 04:27:17 13° SE 04:27:52 10° ESE visible
24 Apr 2.5 06:02:46 13° SW 06:04:57 18° SSW 06:07:43 10° SSE visible
25 Apr 2.7 05:55:09 13° SW 05:56:19 14° SSW 05:58:30 10° S visible
26 Apr 2.9 05:47:39 11° SSW 05:47:41 11° SSW 05:48:47 10° S visible
29 Apr 2.9 20:47:46 10° SSE 20:48:40 11° SSE 20:49:39 10° SE visible
30 Apr 2.7 20:37:53 10° S 20:40:00 14° SSE 20:42:10 10° SE visible
30 Apr 3.0 22:17:08 10° SW 22:18:08 16° SW 22:18:08 16° SW visible
